Home > Weather > Magdeburg > Past weeks

Flag for Germany Past Weather in Magdeburg, Saxony-Anhalt, Germany — Yesterday and Last 2 Weeks

Now
66 °F

Partly sunny.


Feels Like: 66 °F
Forecast: 58 / 77 °F
Wind: 14 mph from Southwest

Location: Braunschweig Wolfsburg

Current Time: Jun 30, 2016 at 12:24:48 PM

Latest Report: Jun 30, 2016 at 11:50 AM


Visibility: N/A

Pressure: 29.89 "Hg

Humidity: 68%

Dew Point: 55 °F

Location of MagdeburgLocation

Past Weather in Magdeburg — Graph

°F

Magdeburg Temperature Yesterday

Maximum temperature yesterday: 70 °F (at 12:50 PM)
Minimum temperature yesterday: 61 °F (at 6:50 AM)
Average temperature yesterday: 68 °F

High & Low Weather Summary for the Past Weeks

 TemperatureHumidityPressure
High90 °F (Jun 23, 3:50 PM)100% (Jun 17, 7:50 AM)30.21 "Hg (Jun 17, 7:50 AM)
Low50 °F (Jun 20, 6:50 AM)38% (Jun 23, 3:50 PM)29.50 "Hg (Jun 15, 2:20 PM)
Average68 °F67%29.95 "Hg
* Reported Jun 15 10:20 AM — Jun 30 10:50 AM, Magdeburg, Weather by CustomWeather, © 2016

Note: Actual official high and low records may vary slightly from our data, if they occured in-between our weather recording intervals... More about our weather records

Advertising

Magdeburg Weather History for the Previous 24 Hours

Scroll right to see more
 ConditionsComfort  
Time TempWeatherWind HumidityBarometerVisibility
10:50 AM
Thu, Jun 30
64 °FOvercast.10 mph68%29.92 "HgN/A
10:20 AM64 °FPassing clouds.12 mph68%29.92 "HgN/A
9:50 AM64 °FPartly sunny.8 mph64%29.89 "HgN/A
9:20 AM63 °FPassing clouds.8 mph73%29.89 "HgN/A
8:50 AM63 °FSunny.5 mph73%29.89 "Hg10 mi
8:20 AM61 °FSunny.7 mph72%29.89 "Hg10 mi
7:50 AM61 °FSunny.9 mph72%29.89 "Hg10 mi
7:20 AM61 °FPassing clouds.7 mph72%29.89 "HgN/A
6:50 AM61 °FSunny.8 mph72%29.89 "Hg10 mi
6:20 AM59 °FSunny.7 mph77%29.86 "Hg10 mi
5:50 AM55 °FClear.2 mph88%29.86 "Hg10 mi
9:20 PM
Wed, Jun 29
66 °FSunny.1 mph56%29.89 "Hg10 mi
8:50 PM68 °FSunny.5 mph53%29.89 "Hg10 mi
8:20 PM70 °FSunny.7 mph46%29.89 "Hg10 mi
7:50 PM70 °FSunny.12 mph46%29.89 "Hg10 mi
7:20 PM70 °FPassing clouds.12 mph46%29.89 "HgN/A
6:50 PM70 °FPassing clouds.12 mph46%29.89 "HgN/A
6:20 PM70 °FPassing clouds.12 mph50%29.89 "HgN/A
5:50 PM70 °FPassing clouds.13 mph50%29.89 "HgN/A
5:20 PM70 °FPassing clouds.13 mph50%29.89 "HgN/A
4:50 PM70 °FPassing clouds.15 mph53%29.89 "HgN/A
4:20 PM70 °FPassing clouds.15 mph53%29.92 "HgN/A
3:50 PM70 °FPartly sunny.14 mph53%29.89 "HgN/A
3:20 PM68 °FPartly sunny.16 mph53%29.89 "HgN/A
2:50 PM68 °FPartly sunny.16 mph53%29.89 "HgN/A
2:20 PM66 °FPartly sunny.14 mph56%29.89 "HgN/A
1:50 PM70 °FPartly sunny.17 mph50%29.89 "HgN/A
1:20 PM68 °FScattered clouds.18 mph53%29.89 "HgN/A
12:50 PM70 °FScattered clouds.18 mph46%29.89 "HgN/A
12:20 PM68 °FScattered clouds.17 mph56%29.86 "HgN/A
Weather by CustomWeather, © 2016

See weather overviewHow to use our weather pages